TimeMDT,TemperatureF,Dew PointF,Humidity,Sea Level PressureIn,VisibilityMPH,Wind Direction,Wind SpeedMPH,Gust SpeedMPH,PrecipitationIn,Events,Conditions,WindDirDegrees,DateUTC
12:00 AM,26.6,-9999,N/A,30.00,10.0,Calm,Calm,-,N/A,,Clear,0,2012-10-09 06:00:00
12:20 AM,26.6,-9999,N/A,30.02,10.0,Calm,Calm,-,N/A,,Clear,0,2012-10-09 06:20:00
12:40 AM,26.6,-9999,N/A,30.02,10.0,Calm,Calm,-,N/A,,Partly Cloudy,0,2012-10-09 06:40:00
1:00 AM,24.8,-9999,N/A,30.01,10.0,SSW,3.5,-,N/A,,Mostly Cloudy,210,2012-10-09 07:00:00
1:40 AM,26.6,-9999,N/A,30.01,10.0,Calm,Calm,-,N/A,,Overcast,0,2012-10-09 07:40:00
2:00 AM,26.6,-9999,N/A,30.02,10.0,Calm,Calm,-,N/A,,Overcast,0,2012-10-09 08:00:00
2:20 AM,26.6,-9999,N/A,30.03,10.0,Calm,Calm,-,N/A,,Overcast,0,2012-10-09 08:20:00
2:40 AM,26.6,-9999,N/A,30.03,10.0,Calm,Calm,-,N/A,,Overcast,0,2012-10-09 08:40:00
3:00 AM,26.6,-9999,N/A,30.03,10.0,Calm,Calm,-,N/A,,Overcast,0,2012-10-09 09:00:00
3:20 AM,28.4,-9999,N/A,30.03,10.0,Calm,Calm,-,N/A,,Overcast,0,2012-10-09 09:20:00
3:50 AM,28.4,-9999,N/A,30.03,10.0,South,3.5,-,N/A,,Overcast,180,2012-10-09 09:50:00
4:10 AM,28.4,-9999,N/A,30.04,10.0,Calm,Calm,-,N/A,,Overcast,0,2012-10-09 10:10:00
4:30 AM,28.4,-9999,N/A,30.04,10.0,Calm,Calm,-,N/A,,Overcast,0,2012-10-09 10:30:00
4:50 AM,28.4,-9999,N/A,30.04,10.0,Calm,Calm,-,N/A,,Overcast,0,2012-10-09 10:50:00
5:10 AM,28.4,-9999,N/A,30.05,10.0,Calm,Calm,-,N/A,,Overcast,0,2012-10-09 11:10:00
5:30 AM,28.4,-9999,N/A,30.05,10.0,SSW,3.5,-,N/A,,Overcast,210,2012-10-09 11:30:00
5:50 AM,28.4,-9999,N/A,30.05,10.0,Calm,Calm,-,N/A,,Overcast,0,2012-10-09 11:50:00
6:10 AM,28.4,-9999,N/A,30.06,10.0,South,3.5,-,N/A,,Overcast,180,2012-10-09 12:10:00
6:30 AM,28.4,-9999,N/A,30.06,10.0,Calm,Calm,-,N/A,,Overcast,0,2012-10-09 12:30:00
6:50 AM,28.4,-9999,N/A,30.07,10.0,Calm,Calm,-,N/A,,Overcast,0,2012-10-09 12:50:00
7:10 AM,28.4,-9999,N/A,30.07,10.0,Calm,Calm,-,N/A,,Overcast,0,2012-10-09 13:10:00
7:30 AM,28.4,-9999,N/A,30.08,10.0,Calm,Calm,-,N/A,,Mostly Cloudy,0,2012-10-09 13:30:00
7:50 AM,26.6,-9999,N/A,30.08,10.0,Calm,Calm,-,N/A,,Clear,0,2012-10-09 13:50:00
8:10 AM,26.6,-9999,N/A,30.09,10.0,Calm,Calm,-,N/A,,Scattered Clouds,0,2012-10-09 14:10:00
8:30 AM,28.4,-9999,N/A,30.10,10.0,Calm,Calm,-,N/A,,Partly Cloudy,0,2012-10-09 14:30:00
8:50 AM,32.0,-9999,N/A,30.11,10.0,Calm,Calm,-,N/A,,Clear,0,2012-10-09 14:50:00
9:10 AM,32.0,-9999,N/A,30.11,10.0,Calm,Calm,-,N/A,,Clear,0,2012-10-09 15:10:00
9:30 AM,35.6,-9999,N/A,30.12,10.0,Calm,Calm,-,N/A,,Mostly Cloudy,0,2012-10-09 15:30:00
9:50 AM,35.6,-9999,N/A,30.13,10.0,Calm,Calm,-,N/A,,Overcast,0,2012-10-09 15:50:00
10:10 AM,37.4,-9999,N/A,30.13,10.0,Calm,Calm,-,N/A,,Overcast,0,2012-10-09 16:10:00
10:30 AM,39.2,-9999,N/A,30.13,10.0,Calm,Calm,-,N/A,,Overcast,0,2012-10-09 16:30:00
10:50 AM,39.2,-9999,N/A,30.13,10.0,Calm,Calm,-,N/A,,Overcast,0,2012-10-09 16:50:00
11:10 AM,41.0,-9999,N/A,30.13,10.0,Calm,Calm,-,N/A,,Overcast,0,2012-10-09 17:10:00
11:30 AM,42.8,-9999,N/A,30.14,10.0,NE,3.5,-,N/A,,Overcast,40,2012-10-09 17:30:00
11:50 AM,42.8,-9999,N/A,30.14,10.0,NE,3.5,-,N/A,,Overcast,50,2012-10-09 17:50:00
12:10 PM,44.6,-9999,N/A,30.14,10.0,Calm,Calm,-,N/A,,Overcast,0,2012-10-09 18:10:00
12:30 PM,44.6,-9999,N/A,30.13,10.0,Calm,Calm,-,N/A,,Overcast,0,2012-10-09 18:30:00
12:50 PM,46.4,-9999,N/A,30.13,10.0,SE,3.5,-,N/A,,Mostly Cloudy,130,2012-10-09 18:50:00
1:10 PM,48.2,-9999,N/A,30.12,10.0,South,6.9,-,N/A,,Mostly Cloudy,170,2012-10-09 19:10:00
1:30 PM,48.2,-9999,N/A,30.12,10.0,NE,3.5,-,N/A,,Mostly Cloudy,40,2012-10-09 19:30:00
1:50 PM,48.2,-9999,N/A,30.12,10.0,SE,4.6,-,N/A,,Scattered Clouds,130,2012-10-09 19:50:00
2:10 PM,50.0,-9999,N/A,30.11,10.0,WNW,6.9,-,N/A,,Scattered Clouds,290,2012-10-09 20:10:00
2:30 PM,50.0,-9999,N/A,30.11,10.0,North,8.1,16.1,N/A,,Clear,350,2012-10-09 20:30:00
2:50 PM,51.8,-9999,N/A,30.11,10.0,North,3.5,-,N/A,,Scattered Clouds,350,2012-10-09 20:50:00
3:10 PM,51.8,-9999,N/A,30.10,10.0,NNE,9.2,-,N/A,,Mostly Cloudy,30,2012-10-09 21:10:00
3:30 PM,53.6,-9999,N/A,30.11,10.0,NE,4.6,-,N/A,,Overcast,50,2012-10-09 21:30:00
3:50 PM,53.6,-9999,N/A,30.11,10.0,West,6.9,-,N/A,,Mostly Cloudy,260,2012-10-09 21:50:00
4:10 PM,53.6,-9999,N/A,30.10,10.0,Calm,Calm,-,N/A,,Scattered Clouds,0,2012-10-09 22:10:00
4:30 PM,53.6,-9999,N/A,30.10,10.0,WSW,6.9,-,N/A,,Mostly Cloudy,250,2012-10-09 22:30:00
4:50 PM,53.6,-9999,N/A,30.10,10.0,NNW,6.9,-,N/A,,Partly Cloudy,340,2012-10-09 22:50:00
5:10 PM,53.6,-9999,N/A,30.10,10.0,NW,4.6,-,N/A,,Clear,310,2012-10-09 23:10:00
5:30 PM,53.6,-9999,N/A,30.10,10.0,WSW,8.1,-,N/A,,Clear,240,2012-10-09 23:30:00
5:50 PM,51.8,-9999,N/A,30.10,10.0,WSW,3.5,-,N/A,,Clear,240,2012-10-09 23:50:00
6:10 PM,51.8,-9999,N/A,30.10,10.0,Calm,Calm,-,N/A,,Clear,0,2012-10-10 00:10:00
6:30 PM,50.0,-9999,N/A,30.10,10.0,Calm,Calm,-,N/A,,Clear,0,2012-10-10 00:30:00
6:50 PM,46.4,-9999,N/A,30.11,10.0,Calm,Calm,-,N/A,,Clear,0,2012-10-10 00:50:00
7:10 PM,46.4,-9999,N/A,30.11,10.0,West,3.5,-,N/A,,Clear,280,2012-10-10 01:10:00
7:30 PM,39.2,-9999,N/A,30.11,10.0,SW,4.6,-,N/A,,Clear,220,2012-10-10 01:30:00
7:50 PM,37.4,-9999,N/A,30.12,10.0,Calm,Calm,-,N/A,,Clear,0,2012-10-10 01:50:00
8:10 PM,33.8,-9999,N/A,30.12,10.0,SSE,3.5,-,N/A,,Clear,150,2012-10-10 02:10:00
8:30 PM,35.6,-9999,N/A,30.12,10.0,Calm,Calm,-,N/A,,Clear,0,2012-10-10 02:30:00
8:50 PM,32.0,-9999,N/A,30.13,10.0,Calm,Calm,-,N/A,,Clear,0,2012-10-10 02:50:00
9:10 PM,32.0,-9999,N/A,30.14,10.0,Calm,Calm,-,N/A,,Clear,0,2012-10-10 03:10:00
9:30 PM,30.2,-9999,N/A,30.14,10.0,Calm,Calm,-,N/A,,Clear,0,2012-10-10 03:30:00
9:50 PM,28.4,-9999,N/A,30.14,10.0,Calm,Calm,-,N/A,,Clear,0,2012-10-10 03:50:00
10:10 PM,28.4,-9999,N/A,30.14,10.0,North,3.5,-,N/A,,Clear,10,2012-10-10 04:10:00
10:30 PM,28.4,-9999,N/A,30.14,10.0,Calm,Calm,-,N/A,,Clear,0,2012-10-10 04:30:00
10:50 PM,26.6,-9999,N/A,30.15,10.0,SSW,5.8,-,N/A,,Clear,210,2012-10-10 04:50:00
11:10 PM,26.6,-9999,N/A,30.15,10.0,Calm,Calm,-,N/A,,Clear,0,2012-10-10 05:10:00
11:30 PM,26.6,-9999,N/A,30.14,10.0,Calm,Calm,-,N/A,,Clear,0,2012-10-10 05:30:00
11:50 PM,26.6,-9999,N/A,30.14,10.0,Calm,Calm,-,N/A,,Clear,0,2012-10-10 05:50:00